Regional Weather Roundup
Issued by NWS Midland/Odessa, TX

Skip options and go directly to product.
Home | Oldest Version | Previous Version | Current Version | All | Text Only | Save Text | Print | Product List | Glossary Off

Skip product version selection by date and time.   

774
ASUS44 KMAF 210510
RWRMAF
MIDLAND AREA WEATHER ROUNDUP
NATIONAL WEATHER SERVICE MIDLAND TX
1100 PM CST MON FEB 20 2017

...IN SOUTHWEST TEXAS AND SOUTHEAST NEW MEXICO...

CITY           SKY/WX    TMP DP  RH WIND       PRES   REMARKS
ALPINE         CLEAR     51  26  37 W8        30.28S
ANDREWS        FAIR      47  28  47 W5        30.13S
ARTESIA        CLEAR     48  27  43 W13       30.16S
BIG SPRING     CLEAR     43  30  61 CALM      30.11S
CARLSBAD       CLEAR     55  28  35 W12       30.14S
DRYDEN           N/A     59  30  33 W9        30.11R
FORT STOCKTON  CLEAR     53  24  32 SW12      30.16R
GUAD PASS      CLEAR     49  25  39 SW13      30.26R
HOBBS          CLEAR     39  19  45 W7        30.16R WCI  34
MARFA          CLEAR     41  25  53 NW6       30.27S WCI  37
MIDLAND AIRPK  CLEAR     52  28  39 W7        30.12S
MIDLAND INTL   CLEAR     49  31  49 W6        30.11S
ODESSA           N/A     50  26  39 NW5       30.12F
PECOS          CLEAR     50  25  37 W10       30.15S
PRESIDIO       FAIR      53  27  37 CALM      30.23R
SEMINOLE       CLEAR     47  25  42 CALM      30.14R
SNYDER         CLEAR     52  24  34 NW8       30.07R
WINK           CLEAR     49  24  37 W8        30.12R
$$
...OTHER STATIONS IN TEXAS...

CITY           SKY/WX    TMP DP  RH WIND       PRES   REMARKS
ABILENE        CLEAR     52  38  58 W6        30.01R
AMARILLO       CLEAR     43  19  38 W9        30.10R WCI  38
AUSTIN         LGT RAIN  61  58  90 E7        29.98R
BROWNSVILLE    CLEAR     60  60 100 CALM      30.05R FOG
CORPUS CHRISTI CLEAR     60  60 100 S8        30.02S
DALLAS FTW     CLEAR     58  55  90 SW9       29.91R
DEL RIO        CLEAR     58  40  51 N6        30.06R
EL PASO        CLEAR     55  27  34 CALM      30.24R
HOUSTON INT    PTCLDY    59  58  96 S5        30.00S FOG
LUBBOCK        CLEAR     45  23  42 NW6       30.10R
SAN ANGELO     CLEAR     52  37  56 W10       30.04R
SAN ANTONIO    PTCLDY    60  44  55 W9        29.97S
WACO           CLEAR     57  56  96 SE9       29.93S
WICHITA FALLS  NOT AVBL
$$
...OTHER LOCATIONS IN NEW MEXICO...

CITY           SKY/WX    TMP DP  RH WIND       PRES   REMARKS
ALAMAGORDO     CLEAR     48  23  37 N7        30.25R
ALBUQUERQUE    CLEAR     50  29  44 NW3       30.29R
CANNON AFB     CLEAR     38  23  55 NE7       30.15R WCI  32
CLOVIS         CLEAR     39  25  56 N5        30.14S WCI  36
HOLLOMAN AFB   CLEAR     48  26  41 N6        30.28R
ROSWELL        CLEAR     55  24  30 W12         N/A
RUIDOSO        CLEAR     41  18  38 CALM      30.30S
SANTA FE       CLEAR     36  23  59 N10       30.27R WCI  28
TRUTH OR CONSE CLEAR     50  33  52 W6        30.26R
TUCUMCARI      CLEAR     44  17  33 CALM      30.12R
$$

  • National Weather Service
  • Southern Region Headquarters
  • 819 Taylor Street, Room 10A06
  • Fort Worth, TX 76102
  • Page Author: NWS Fort Worth
  • Web Master: SR-SRH.Webmaster@noaa.gov
  •  
  • Page last modified: 30-Sep-2016 6:36 PM UTC
USA.gov is the U.S. government's official web portal to all federal, state and local government web resources and services.